Location: Carabito
(9.8355°N, 67.9249°W)
Time: 22:12:39
(UTC+00:00)

Sakura Rocket - Pass Details

Date: 23 May 2024
Orbit: 475 x 1714 km, 28.7° (Epoch: 23 June)

Event Time Altitude Azimuth Distance (km) Brightness Sun altitude
Exits shadow 08:43:03 28° 203° (SSW) 1,644 4.8 -20.4°
Maximum altitude 08:45:41 42° 153° (SSE) 1,154 4.4 -19.8°
Drops below altitude 10° 08:50:19 10° 82° (E) 2,097 6.9 -18.8°
Sets 08:52:28 0° 75° (ENE) 2,874 8.1 -18.3°
